Location: Coed Ely
(51.5661°N, 3.4150°W)
Time: 02:00:41
(UTC+00:00)

IRS-1C Rocket - Pass Details

Date: 28 January 2021
Orbit: 801 x 805 km, 99.0° (Epoch: 28 February)

Event Time Altitude Azimuth Distance (km) Brightness Sun altitude
Rises 17:43:39 0° 142° (SE) 3,302 7.1 -7.6°
Reaches altitude 10° 17:46:03 10° 136° (SE) 2,375 6.3 -7.9°
Maximum altitude 17:51:01 45° 65° (ENE) 1,083 4.4 -8.6°
Drops below altitude 10° 17:56:01 10° 354° (N) 2,391 6.5 -9.4°
Sets 17:58:26 0° 349° (NNW) 3,326 7.2 -9.7°
